contact:dominique.lefevre@mio.osupytheas.fr, maurice.libes@osupytheas.fr, didier.mallarino@osupytheas.fr
Project:EMSO http://www.emso-fr.org/EMSO-France
Depth: 2436.0 m
Title:EMSO Ligure Ouest : Data MII capteur MICROCAT
DateTime_Computer,Latitude,Longitude,Temperature,Conductivity,Pressure,DateTime_Instrument
DateTime_Computer,Latitude,Longitude,degC,S m-1,dbar,DateTime_Instrument
2022-07-29T00:02:58Z,42.805,6.029,13.3032,4.60127,2470.684,2022-7-29T02:04:46Z
2022-07-29T00:06:01Z,42.805,6.029,13.3024,4.60111,2470.661,2022-7-29T02:07:49Z
2022-07-29T00:09:04Z,42.805,6.029,13.3026,4.60118,2470.646,2022-7-29T02:10:52Z
2022-07-29T00:12:07Z,42.805,6.029,13.3026,4.60114,2470.684,2022-7-29T02:13:55Z
2022-07-29T00:15:10Z,42.805,6.029,13.3022,4.60110,2470.67,2022-7-29T02:16:58Z
2022-07-29T00:18:13Z,42.805,6.029,13.3019,4.60114,2470.646,2022-7-29T02:20:01Z
2022-07-29T00:21:17Z,42.805,6.029,13.3022,4.60101,2470.646,2022-7-29T02:23:04Z
2022-07-29T00:24:20Z,42.805,6.029,13.3039,4.60114,2470.661,2022-7-29T02:26:07Z
2022-07-29T00:27:23Z,42.805,6.029,13.3032,4.60120,2470.646,2022-7-29T02:29:10Z
2022-07-29T00:30:26Z,42.805,6.029,13.3033,4.60126,2470.637,2022-7-29T02:32:14Z
2022-07-29T00:33:29Z,42.805,6.029,13.3022,4.60117,2470.646,2022-7-29T02:35:17Z
2022-07-29T00:36:32Z,42.805,6.029,13.3027,4.60099,2470.661,2022-7-29T02:38:20Z
2022-07-29T00:39:35Z,42.805,6.029,13.3024,4.60114,2470.637,2022-7-29T02:41:23Z
2022-07-29T00:42:38Z,42.805,6.029,13.3043,4.60114,2470.684,2022-7-29T02:44:26Z
2022-07-29T00:45:42Z,42.805,6.029,13.3037,4.60105,2470.661,2022-7-29T02:47:29Z
2022-07-29T00:48:45Z,42.805,6.029,13.3031,4.60110,2470.624,2022-7-29T02:50:32Z
2022-07-29T00:51:48Z,42.805,6.029,13.3029,4.60102,2470.661,2022-7-29T02:53:35Z
2022-07-29T00:54:51Z,42.805,6.029,13.3037,4.60111,2470.614,2022-7-29T02:56:39Z
2022-07-29T00:57:54Z,42.805,6.029,13.3044,4.60121,2470.684,2022-7-29T02:59:42Z
2022-07-29T01:00:57Z,42.805,6.029,13.3021,4.60123,2470.624,2022-7-29T03:02:45Z
2022-07-29T01:04:00Z,42.805,6.029,13.3030,4.60122,2470.624,2022-7-29T03:05:48Z
2022-07-29T01:07:03Z,42.805,6.029,13.3033,4.60101,2470.614,2022-7-29T03:08:51Z
2022-07-29T01:10:07Z,42.805,6.029,13.3027,4.60114,2470.624,2022-7-29T03:11:54Z
2022-07-29T01:13:10Z,42.805,6.029,13.3034,4.60102,2470.6,2022-7-29T03:14:57Z
2022-07-29T01:16:13Z,42.805,6.029,13.3034,4.60105,2470.624,2022-7-29T03:18:00Z
2022-07-29T01:19:16Z,42.805,6.029,13.3033,4.60114,2470.661,2022-7-29T03:21:04Z
2022-07-29T01:22:19Z,42.805,6.029,13.3033,4.60103,2470.624,2022-7-29T03:24:07Z
2022-07-29T01:25:22Z,42.805,6.029,13.3031,4.60130,2470.614,2022-7-29T03:27:10Z
2022-07-29T01:28:25Z,42.805,6.029,13.3029,4.60101,2470.6,2022-7-29T03:30:13Z
2022-07-29T01:31:28Z,42.805,6.029,13.3029,4.60114,2470.6,2022-7-29T03:33:16Z
2022-07-29T01:34:32Z,42.805,6.029,13.3032,4.60098,2470.614,2022-7-29T03:36:19Z
2022-07-29T01:37:35Z,42.805,6.029,13.3033,4.60095,2470.624,2022-7-29T03:39:22Z
2022-07-29T01:40:38Z,42.805,6.029,13.3028,4.60098,2470.684,2022-7-29T03:42:25Z
2022-07-29T01:43:41Z,42.805,6.029,13.3035,4.60096,2470.6,2022-7-29T03:45:29Z
2022-07-29T01:46:44Z,42.805,6.029,13.3022,4.60099,2470.624,2022-7-29T03:48:32Z
2022-07-29T01:49:47Z,42.805,6.029,13.3026,4.60100,2470.6,2022-7-29T03:51:35Z
2022-07-29T01:52:50Z,42.805,6.029,13.3022,4.60085,2470.661,2022-7-29T03:54:38Z
2022-07-29T01:55:53Z,42.805,6.029,13.3017,4.60094,2470.614,2022-7-29T03:57:41Z
2022-07-29T01:58:57Z,42.805,6.029,13.3019,4.60084,2470.637,2022-7-29T04:00:44Z
2022-07-29T02:02:00Z,42.805,6.029,13.3024,4.60103,2470.614,2022-7-29T04:03:47Z
2022-07-29T02:05:03Z,42.805,6.029,13.3017,4.60097,2470.637,2022-7-29T04:06:50Z
2022-07-29T02:08:06Z,42.805,6.029,13.3028,4.60099,2470.586,2022-7-29T04:09:53Z
2022-07-29T02:11:09Z,42.805,6.029,13.3022,4.60091,2470.6,2022-7-29T04:12:57Z
2022-07-29T02:14:12Z,42.805,6.029,13.3029,4.60096,2470.624,2022-7-29T04:16:00Z
2022-07-29T02:17:15Z,42.805,6.029,13.3016,4.60068,2470.624,2022-7-29T04:19:03Z
2022-07-29T02:20:18Z,42.805,6.029,13.3020,4.60082,2470.6,2022-7-29T04:22:06Z
2022-07-29T02:23:21Z,42.805,6.029,13.3021,4.60075,2470.591,2022-7-29T04:25:09Z
2022-07-29T02:26:25Z,42.805,6.029,13.3021,4.60085,2470.591,2022-7-29T04:28:12Z
2022-07-29T02:29:28Z,42.805,6.029,13.3035,4.60094,2470.577,2022-7-29T04:31:15Z
2022-07-29T02:32:31Z,42.805,6.029,13.3031,4.60102,2470.6,2022-7-29T04:34:18Z
2022-07-29T02:35:34Z,42.805,6.029,13.3030,4.60090,2470.6,2022-7-29T04:37:22Z
2022-07-29T02:38:37Z,42.805,6.029,13.3034,4.60097,2470.6,2022-7-29T04:40:25Z
2022-07-29T02:41:40Z,42.805,6.029,13.3021,4.60094,2470.614,2022-7-29T04:43:28Z
2022-07-29T02:44:43Z,42.805,6.029,13.3023,4.60080,2470.624,2022-7-29T04:46:31Z
2022-07-29T02:47:46Z,42.805,6.029,13.3030,4.60102,2470.591,2022-7-29T04:49:34Z
2022-07-29T02:50:50Z,42.805,6.029,13.3024,4.60102,2470.6,2022-7-29T04:52:37Z
2022-07-29T02:53:53Z,42.805,6.029,13.3027,4.60099,2470.6,2022-7-29T04:55:40Z
2022-07-29T02:56:56Z,42.805,6.029,13.3036,4.60119,2470.591,2022-7-29T04:58:43Z
2022-07-29T02:59:59Z,42.805,6.029,13.3027,4.60095,2470.614,2022-7-29T05:01:47Z
2022-07-29T03:03:02Z,42.805,6.029,13.3032,4.60102,2470.614,2022-7-29T05:04:50Z
2022-07-29T03:06:05Z,42.805,6.029,13.3019,4.60092,2470.577,2022-7-29T05:07:53Z
2022-07-29T03:09:08Z,42.805,6.029,13.3019,4.60075,2470.577,2022-7-29T05:10:56Z
2022-07-29T03:12:11Z,42.805,6.029,13.3018,4.60072,2470.577,2022-7-29T05:13:59Z
2022-07-29T03:15:15Z,42.805,6.029,13.3027,4.60077,2470.577,2022-7-29T05:17:02Z
2022-07-29T03:18:18Z,42.805,6.029,13.3018,4.60094,2470.553,2022-7-29T05:20:05Z
2022-07-29T03:21:21Z,42.805,6.029,13.3021,4.60097,2470.614,2022-7-29T05:23:08Z
2022-07-29T03:24:24Z,42.805,6.029,13.3027,4.60080,2470.614,2022-7-29T05:26:11Z
2022-07-29T03:27:27Z,42.805,6.029,13.3024,4.60084,2470.577,2022-7-29T05:29:15Z
2022-07-29T03:30:30Z,42.805,6.029,13.3017,4.60079,2470.577,2022-7-29T05:32:18Z
2022-07-29T03:33:33Z,42.805,6.029,13.3026,4.60092,2470.6,2022-7-29T05:35:21Z
2022-07-29T03:36:36Z,42.805,6.029,13.3031,4.60129,2470.577,2022-7-29T05:38:24Z
2022-07-29T03:39:39Z,42.805,6.029,13.3034,4.60102,2470.6,2022-7-29T05:41:27Z
2022-07-29T03:42:43Z,42.805,6.029,13.3022,4.60099,2470.6,2022-7-29T05:44:30Z
2022-07-29T03:45:46Z,42.805,6.029,13.3025,4.60115,2470.6,2022-7-29T05:47:33Z
2022-07-29T03:48:49Z,42.805,6.029,13.3021,4.60078,2470.637,2022-7-29T05:50:36Z
2022-07-29T03:51:52Z,42.805,6.029,13.3024,4.60079,2470.6,2022-7-29T05:53:40Z
2022-07-29T03:54:55Z,42.805,6.029,13.3019,4.60074,2470.614,2022-7-29T05:56:43Z
2022-07-29T03:57:58Z,42.805,6.029,13.3024,4.60087,2470.614,2022-7-29T05:59:46Z
2022-07-29T04:01:01Z,42.805,6.029,13.3032,4.60092,2470.6,2022-7-29T06:02:49Z
2022-07-29T04:04:04Z,42.805,6.029,13.3025,4.60073,2470.624,2022-7-29T06:05:52Z
2022-07-29T04:07:08Z,42.805,6.029,13.3022,4.60079,2470.624,2022-7-29T06:08:55Z
2022-07-29T04:10:11Z,42.805,6.029,13.3017,4.60075,2470.614,2022-7-29T06:11:58Z
2022-07-29T04:13:14Z,42.805,6.029,13.3019,4.60097,2470.591,2022-7-29T06:15:01Z
2022-07-29T04:16:17Z,42.805,6.029,13.3028,4.60079,2470.614,2022-7-29T06:18:05Z
2022-07-29T04:19:20Z,42.805,6.029,13.3026,4.60092,2470.624,2022-7-29T06:21:08Z
2022-07-29T04:22:23Z,42.805,6.029,13.3022,4.60085,2470.614,2022-7-29T06:24:11Z
2022-07-29T04:25:26Z,42.805,6.029,13.3015,4.60120,2470.624,2022-7-29T06:27:14Z
2022-07-29T04:28:29Z,42.805,6.029,13.3020,4.60097,2470.614,2022-7-29T06:30:17Z
2022-07-29T04:31:32Z,42.805,6.029,13.3015,4.60080,2470.646,2022-7-29T06:33:20Z
2022-07-29T04:34:36Z,42.805,6.029,13.3020,4.60076,2470.646,2022-7-29T06:36:23Z
2022-07-29T04:37:39Z,42.805,6.029,13.3019,4.60074,2470.614,2022-7-29T06:39:26Z
2022-07-29T04:40:42Z,42.805,6.029,13.3022,4.60067,2470.646,2022-7-29T06:42:29Z
2022-07-29T04:43:45Z,42.805,6.029,13.3021,4.60084,2470.624,2022-7-29T06:45:33Z
2022-07-29T04:46:48Z,42.805,6.029,13.3021,4.60081,2470.646,2022-7-29T06:48:36Z
2022-07-29T04:49:51Z,42.805,6.029,13.3021,4.60084,2470.67,2022-7-29T06:51:39Z
2022-07-29T04:52:54Z,42.805,6.029,13.3018,4.60068,2470.624,2022-7-29T06:54:42Z
2022-07-29T04:55:57Z,42.805,6.029,13.3016,4.60074,2470.661,2022-7-29T06:57:45Z
2022-07-29T04:59:01Z,42.805,6.029,13.3023,4.60103,2470.67,2022-7-29T07:00:48Z
2022-07-29T05:02:04Z,42.805,6.029,13.3022,4.60084,2470.637,2022-7-29T07:03:51Z
2022-07-29T05:05:07Z,42.805,6.029,13.3019,4.60095,2470.67,2022-7-29T07:06:54Z
2022-07-29T05:08:10Z,42.805,6.029,13.3026,4.60103,2470.661,2022-7-29T07:09:58Z
2022-07-29T05:11:13Z,42.805,6.029,13.3015,4.60097,2470.67,2022-7-29T07:13:01Z
2022-07-29T05:14:16Z,42.805,6.029,13.3034,4.60110,2470.637,2022-7-29T07:16:04Z
2022-07-29T05:17:19Z,42.805,6.029,13.3029,4.60114,2470.661,2022-7-29T07:19:07Z
2022-07-29T05:20:22Z,42.805,6.029,13.3021,4.60074,2470.646,2022-7-29T07:22:10Z
2022-07-29T05:23:26Z,42.805,6.029,13.3017,4.60084,2470.646,2022-7-29T07:25:13Z
2022-07-29T05:26:29Z,42.805,6.029,13.3016,4.60092,2470.661,2022-7-29T07:28:16Z
2022-07-29T05:29:32Z,42.805,6.029,13.3023,4.60102,2470.661,2022-7-29T07:31:19Z
2022-07-29T05:32:35Z,42.805,6.029,13.3021,4.60130,2470.67,2022-7-29T07:34:23Z
2022-07-29T05:35:38Z,42.805,6.029,13.3022,4.60098,2470.67,2022-7-29T07:37:26Z
2022-07-29T05:38:41Z,42.805,6.029,13.3027,4.60086,2470.67,2022-7-29T07:40:29Z
2022-07-29T05:41:44Z,42.805,6.029,13.3039,4.60105,2470.67,2022-7-29T07:43:32Z
2022-07-29T05:44:47Z,42.805,6.029,13.3022,4.60089,2470.67,2022-7-29T07:46:35Z
2022-07-29T05:47:51Z,42.805,6.029,13.3019,4.60086,2470.67,2022-7-29T07:49:38Z
2022-07-29T05:50:54Z,42.805,6.029,13.3021,4.60099,2470.67,2022-7-29T07:52:41Z
2022-07-29T05:53:57Z,42.805,6.029,13.3019,4.60089,2470.684,2022-7-29T07:55:44Z
2022-07-29T05:57:00Z,42.805,6.029,13.3023,4.60096,2470.684,2022-7-29T07:58:47Z
2022-07-29T06:00:03Z,42.805,6.029,13.3022,4.60106,2470.707,2022-7-29T08:01:51Z
2022-07-29T06:03:06Z,42.805,6.029,13.3022,4.60089,2470.67,2022-7-29T08:04:54Z
2022-07-29T06:06:09Z,42.805,6.029,13.3014,4.60079,2470.684,2022-7-29T08:07:57Z
2022-07-29T06:09:12Z,42.805,6.029,13.3018,4.60074,2470.693,2022-7-29T08:11:00Z
2022-07-29T06:12:15Z,42.805,6.029,13.3021,4.60058,2470.707,2022-7-29T08:14:03Z
2022-07-29T06:15:19Z,42.805,6.029,13.3015,4.60067,2470.67,2022-7-29T08:17:06Z
2022-07-29T06:18:22Z,42.805,6.029,13.3019,4.60074,2470.679,2022-7-29T08:20:09Z
2022-07-29T06:21:25Z,42.805,6.029,13.3024,4.60068,2470.693,2022-7-29T08:23:12Z
2022-07-29T06:24:28Z,42.805,6.029,13.3031,4.60101,2470.707,2022-7-29T08:26:16Z
2022-07-29T06:27:31Z,42.805,6.029,13.3023,4.60092,2470.693,2022-7-29T08:29:19Z
2022-07-29T06:30:34Z,42.805,6.029,13.3027,4.60097,2470.73,2022-7-29T08:32:22Z
2022-07-29T06:33:37Z,42.805,6.029,13.3019,4.60086,2470.73,2022-7-29T08:35:25Z
2022-07-29T06:36:40Z,42.805,6.029,13.3020,4.60079,2470.693,2022-7-29T08:38:28Z
2022-07-29T06:39:44Z,42.805,6.029,13.3032,4.60087,2470.693,2022-7-29T08:41:31Z
2022-07-29T06:42:47Z,42.805,6.029,13.3018,4.60099,2470.73,2022-7-29T08:44:34Z
2022-07-29T06:45:50Z,42.805,6.029,13.3021,4.60085,2470.73,2022-7-29T08:47:37Z
2022-07-29T06:48:53Z,42.805,6.029,13.3020,4.60107,2470.717,2022-7-29T08:50:41Z
2022-07-29T06:51:56Z,42.805,6.029,13.3024,4.60102,2470.684,2022-7-29T08:53:44Z
2022-07-29T06:54:59Z,42.805,6.029,13.3025,4.60109,2470.717,2022-7-29T08:56:47Z
2022-07-29T06:58:02Z,42.805,6.029,13.3027,4.60084,2470.717,2022-7-29T08:59:50Z
2022-07-29T07:01:05Z,42.805,6.029,13.3026,4.60077,2470.717,2022-7-29T09:02:53Z
2022-07-29T07:04:08Z,42.805,6.029,13.3029,4.60087,2470.707,2022-7-29T09:05:56Z
2022-07-29T07:07:12Z,42.805,6.029,13.3015,4.60075,2470.684,2022-7-29T09:08:59Z
2022-07-29T07:10:15Z,42.805,6.029,13.3029,4.60091,2470.693,2022-7-29T09:12:02Z
2022-07-29T07:13:18Z,42.805,6.029,13.3024,4.60082,2470.717,2022-7-29T09:15:06Z
2022-07-29T07:16:21Z,42.805,6.029,13.3037,4.60093,2470.717,2022-7-29T09:18:09Z
2022-07-29T07:19:24Z,42.805,6.029,13.3034,4.60111,2470.693,2022-7-29T09:21:12Z
2022-07-29T07:22:27Z,42.805,6.029,13.3022,4.60075,2470.693,2022-7-29T09:24:15Z
2022-07-29T07:25:30Z,42.805,6.029,13.3033,4.60099,2470.717,2022-7-29T09:27:18Z
2022-07-29T07:28:33Z,42.805,6.029,13.3022,4.60081,2470.717,2022-7-29T09:30:21Z
2022-07-29T07:31:37Z,42.805,6.029,13.3021,4.60090,2470.717,2022-7-29T09:33:24Z
2022-07-29T07:34:40Z,42.805,6.029,13.3022,4.60080,2470.693,2022-7-29T09:36:27Z
2022-07-29T07:37:43Z,42.805,6.029,13.3029,4.60103,2470.693,2022-7-29T09:39:30Z
2022-07-29T07:40:46Z,42.805,6.029,13.3025,4.60108,2470.693,2022-7-29T09:42:34Z
2022-07-29T07:43:49Z,42.805,6.029,13.3019,4.60084,2470.707,2022-7-29T09:45:37Z
2022-07-29T07:46:52Z,42.805,6.029,13.3015,4.60081,2470.693,2022-7-29T09:48:40Z
2022-07-29T07:49:55Z,42.805,6.029,13.3020,4.60071,2470.74,2022-7-29T09:51:43Z
2022-07-29T07:52:58Z,42.805,6.029,13.3014,4.60067,2470.754,2022-7-29T09:54:46Z
2022-07-29T07:56:02Z,42.805,6.029,13.3015,4.60079,2470.707,2022-7-29T09:57:49Z
2022-07-29T07:59:05Z,42.805,6.029,13.3024,4.60085,2470.717,2022-7-29T10:00:52Z
2022-07-29T08:02:08Z,42.805,6.029,13.3029,4.60088,2470.74,2022-7-29T10:03:55Z
2022-07-29T08:05:11Z,42.805,6.029,13.3015,4.60064,2470.693,2022-7-29T10:06:59Z
2022-07-29T08:08:14Z,42.805,6.029,13.3031,4.60079,2470.754,2022-7-29T10:10:02Z
2022-07-29T08:11:17Z,42.805,6.029,13.3017,4.60067,2470.717,2022-7-29T10:13:05Z
2022-07-29T08:14:20Z,42.805,6.029,13.3011,4.60070,2470.717,2022-7-29T10:16:08Z
2022-07-29T08:17:23Z,42.805,6.029,13.3014,4.60067,2470.693,2022-7-29T10:19:11Z
2022-07-29T08:20:27Z,42.805,6.029,13.3021,4.60092,2470.707,2022-7-29T10:22:14Z
2022-07-29T08:23:30Z,42.805,6.029,13.3010,4.60064,2470.717,2022-7-29T10:25:17Z
2022-07-29T08:26:33Z,42.805,6.029,13.3017,4.60070,2470.707,2022-7-29T10:28:20Z
2022-07-29T08:29:36Z,42.805,6.029,13.3016,4.60079,2470.67,2022-7-29T10:31:24Z
2022-07-29T08:32:39Z,42.805,6.029,13.3024,4.60087,2470.73,2022-7-29T10:34:27Z
2022-07-29T08:35:42Z,42.805,6.029,13.3022,4.60101,2470.67,2022-7-29T10:37:30Z
2022-07-29T08:38:45Z,42.805,6.029,13.3019,4.60089,2470.67,2022-7-29T10:40:33Z
2022-07-29T08:41:48Z,42.805,6.029,13.3025,4.60092,2470.684,2022-7-29T10:43:36Z
2022-07-29T08:44:52Z,42.805,6.029,13.3015,4.60086,2470.67,2022-7-29T10:46:39Z
2022-07-29T08:47:55Z,42.805,6.029,13.3019,4.60078,2470.707,2022-7-29T10:49:42Z
2022-07-29T08:50:58Z,42.805,6.029,13.3015,4.60072,2470.646,2022-7-29T10:52:45Z
2022-07-29T08:54:01Z,42.805,6.029,13.3029,4.60080,2470.684,2022-7-29T10:55:49Z
2022-07-29T08:57:04Z,42.805,6.029,13.3019,4.60074,2470.67,2022-7-29T10:58:52Z
2022-07-29T09:00:07Z,42.805,6.029,13.3017,4.60087,2470.646,2022-7-29T11:01:55Z
2022-07-29T09:03:10Z,42.805,6.029,13.3024,4.60089,2470.67,2022-7-29T11:04:58Z
2022-07-29T09:06:13Z,42.805,6.029,13.3021,4.60102,2470.707,2022-7-29T11:08:01Z
2022-07-29T09:09:17Z,42.805,6.029,13.3021,4.60099,2470.67,2022-7-29T11:11:04Z
2022-07-29T09:12:20Z,42.805,6.029,13.3029,4.60113,2470.661,2022-7-29T11:14:07Z
2022-07-29T09:15:23Z,42.805,6.029,13.3026,4.60084,2470.693,2022-7-29T11:17:10Z
2022-07-29T09:18:26Z,42.805,6.029,13.3019,4.60095,2470.67,2022-7-29T11:20:14Z
2022-07-29T09:21:29Z,42.805,6.029,13.3016,4.60074,2470.646,2022-7-29T11:23:17Z
2022-07-29T09:24:32Z,42.805,6.029,13.3019,4.60059,2470.67,2022-7-29T11:26:20Z
2022-07-29T09:27:35Z,42.805,6.029,13.3015,4.60068,2470.67,2022-7-29T11:29:23Z
2022-07-29T09:30:38Z,42.805,6.029,13.3018,4.60086,2470.656,2022-7-29T11:32:26Z
2022-07-29T09:33:42Z,42.805,6.029,13.3026,4.60092,2470.67,2022-7-29T11:35:29Z
2022-07-29T09:36:45Z,42.805,6.029,13.3023,4.60096,2470.67,2022-7-29T11:38:32Z
2022-07-29T09:39:48Z,42.805,6.029,13.3021,4.60072,2470.67,2022-7-29T11:41:35Z
2022-07-29T09:42:51Z,42.805,6.029,13.3021,4.60081,2470.646,2022-7-29T11:44:39Z
2022-07-29T09:45:54Z,42.805,6.029,13.3021,4.60087,2470.693,2022-7-29T11:47:42Z
2022-07-29T09:48:57Z,42.805,6.029,13.3012,4.60078,2470.661,2022-7-29T11:50:45Z
2022-07-29T09:52:00Z,42.805,6.029,13.3019,4.60068,2470.661,2022-7-29T11:53:48Z
2022-07-29T09:55:03Z,42.805,6.029,13.3026,4.60084,2470.646,2022-7-29T11:56:51Z
2022-07-29T09:58:07Z,42.805,6.029,13.3034,4.60092,2470.646,2022-7-29T11:59:54Z
2022-07-29T10:01:10Z,42.805,6.029,13.3021,4.60077,2470.646,2022-7-29T12:02:57Z
2022-07-29T10:04:13Z,42.805,6.029,13.3020,4.60086,2470.646,2022-7-29T12:06:00Z
2022-07-29T10:07:16Z,42.805,6.029,13.3014,4.60072,2470.646,2022-7-29T12:09:04Z
2022-07-29T10:10:19Z,42.805,6.029,13.3024,4.60072,2470.646,2022-7-29T12:12:07Z
2022-07-29T10:13:22Z,42.805,6.029,13.3010,4.60069,2470.624,2022-7-29T12:15:10Z
2022-07-29T10:16:25Z,42.805,6.029,13.3019,4.60094,2470.61,2022-7-29T12:18:13Z
2022-07-29T10:19:28Z,42.805,6.029,13.3023,4.60072,2470.637,2022-7-29T12:21:16Z
2022-07-29T10:22:32Z,42.805,6.029,13.3022,4.60079,2470.646,2022-7-29T12:24:19Z
2022-07-29T10:25:35Z,42.805,6.029,13.3015,4.60077,2470.614,2022-7-29T12:27:22Z
2022-07-29T10:28:38Z,42.805,6.029,13.3012,4.60081,2470.624,2022-7-29T12:30:25Z
2022-07-29T10:31:41Z,42.805,6.029,13.3020,4.60077,2470.624,2022-7-29T12:33:29Z
2022-07-29T10:34:44Z,42.805,6.029,13.3015,4.60068,2470.624,2022-7-29T12:36:32Z
2022-07-29T10:37:47Z,42.805,6.029,13.3026,4.60084,2470.6,2022-7-29T12:39:35Z
2022-07-29T10:40:50Z,42.805,6.029,13.3022,4.60070,2470.6,2022-7-29T12:42:38Z
2022-07-29T10:43:53Z,42.805,6.029,13.3018,4.60098,2470.624,2022-7-29T12:45:41Z
2022-07-29T10:46:57Z,42.805,6.029,13.3036,4.60089,2470.61,2022-7-29T12:48:44Z
2022-07-29T10:50:00Z,42.805,6.029,13.3018,4.60106,2470.624,2022-7-29T12:51:47Z
2022-07-29T10:53:03Z,42.805,6.029,13.3016,4.60082,2470.624,2022-7-29T12:54:51Z
2022-07-29T10:56:06Z,42.805,6.029,13.3019,4.60090,2470.614,2022-7-29T12:57:54Z
2022-07-29T10:59:09Z,42.805,6.029,13.3025,4.60084,2470.624,2022-7-29T13:00:57Z
2022-07-29T11:02:12Z,42.805,6.029,13.3014,4.60063,2470.6,2022-7-29T13:04:00Z
2022-07-29T11:05:15Z,42.805,6.029,13.3016,4.60073,2470.624,2022-7-29T13:07:03Z
2022-07-29T11:08:18Z,42.805,6.029,13.3024,4.60074,2470.577,2022-7-29T13:10:06Z
2022-07-29T11:11:22Z,42.805,6.029,13.3017,4.60069,2470.6,2022-7-29T13:13:09Z
2022-07-29T11:14:25Z,42.805,6.029,13.3021,4.60081,2470.614,2022-7-29T13:16:12Z
2022-07-29T11:17:28Z,42.805,6.029,13.3012,4.60058,2470.6,2022-7-29T13:19:15Z
2022-07-29T11:20:31Z,42.805,6.029,13.3026,4.60074,2470.6,2022-7-29T13:22:19Z
2022-07-29T11:23:34Z,42.805,6.029,13.3011,4.60064,2470.624,2022-7-29T13:25:22Z
2022-07-29T11:26:37Z,42.805,6.029,13.3014,4.60059,2470.577,2022-7-29T13:28:25Z
2022-07-29T11:29:40Z,42.805,6.029,13.3015,4.60058,2470.614,2022-7-29T13:31:28Z
2022-07-29T11:32:43Z,42.805,6.029,13.3019,4.60076,2470.577,2022-7-29T13:34:31Z
2022-07-29T11:35:47Z,42.805,6.029,13.3021,4.60095,2470.591,2022-7-29T13:37:34Z
2022-07-29T11:38:50Z,42.805,6.029,13.3021,4.60087,2470.577,2022-7-29T13:40:37Z
2022-07-29T11:41:53Z,42.805,6.029,13.3017,4.60067,2470.614,2022-7-29T13:43:40Z
2022-07-29T11:44:56Z,42.805,6.029,13.3014,4.60058,2470.6,2022-7-29T13:46:44Z
2022-07-29T11:47:59Z,42.805,6.029,13.3019,4.60059,2470.577,2022-7-29T13:49:47Z
2022-07-29T11:51:02Z,42.805,6.029,13.3014,4.60056,2470.591,2022-7-29T13:52:50Z
2022-07-29T11:54:05Z,42.805,6.029,13.3019,4.60061,2470.567,2022-7-29T13:55:53Z
2022-07-29T11:57:08Z,42.805,6.029,13.3022,4.60079,2470.6,2022-7-29T13:58:56Z
2022-07-29T12:00:12Z,42.805,6.029,13.3020,4.60059,2470.577,2022-7-29T14:01:59Z
2022-07-29T12:03:15Z,42.805,6.029,13.3017,4.60069,2470.553,2022-7-29T14:05:02Z
2022-07-29T12:06:18Z,42.805,6.029,13.3016,4.60067,2470.553,2022-7-29T14:08:06Z
2022-07-29T12:09:21Z,42.805,6.029,13.3021,4.60092,2470.591,2022-7-29T14:11:09Z
2022-07-29T12:12:24Z,42.805,6.029,13.3026,4.60078,2470.6,2022-7-29T14:14:12Z
2022-07-29T12:15:27Z,42.805,6.029,13.3026,4.60092,2470.577,2022-7-29T14:17:15Z
2022-07-29T12:18:30Z,42.805,6.029,13.3022,4.60094,2470.553,2022-7-29T14:20:18Z
2022-07-29T12:21:33Z,42.805,6.029,13.3021,4.60084,2470.577,2022-7-29T14:23:21Z
2022-07-29T12:24:37Z,42.805,6.029,13.3018,4.60084,2470.553,2022-7-29T14:26:24Z
2022-07-29T12:27:40Z,42.805,6.029,13.3019,4.60069,2470.553,2022-7-29T14:29:27Z
2022-07-29T12:30:43Z,42.805,6.029,13.3019,4.60089,2470.567,2022-7-29T14:32:31Z
2022-07-29T12:33:46Z,42.805,6.029,13.3026,4.60084,2470.591,2022-7-29T14:35:34Z
2022-07-29T12:36:49Z,42.805,6.029,13.3019,4.60084,2470.567,2022-7-29T14:38:37Z
2022-07-29T12:39:52Z,42.805,6.029,13.3041,4.60094,2470.553,2022-7-29T14:41:40Z
2022-07-29T12:42:55Z,42.805,6.029,13.3025,4.60105,2470.591,2022-7-29T14:44:43Z
2022-07-29T12:45:58Z,42.805,6.029,13.3034,4.60097,2470.553,2022-7-29T14:47:46Z
2022-07-29T12:49:02Z,42.805,6.029,13.3019,4.60080,2470.6,2022-7-29T14:50:49Z
2022-07-29T12:52:05Z,42.805,6.029,13.3014,4.60080,2470.553,2022-7-29T14:53:52Z
2022-07-29T12:55:08Z,42.805,6.029,13.3037,4.60098,2470.553,2022-7-29T14:56:56Z
2022-07-29T12:58:11Z,42.805,6.029,13.3025,4.60086,2470.539,2022-7-29T14:59:59Z
2022-07-29T13:01:14Z,42.805,6.029,13.3024,4.60074,2470.553,2022-7-29T15:03:02Z
2022-07-29T13:04:17Z,42.805,6.029,13.3031,4.60091,2470.553,2022-7-29T15:06:05Z
2022-07-29T13:07:20Z,42.805,6.029,13.3014,4.60069,2470.567,2022-7-29T15:09:08Z
2022-07-29T13:10:23Z,42.805,6.029,13.3019,4.60057,2470.53,2022-7-29T15:12:11Z
2022-07-29T13:13:27Z,42.805,6.029,13.3014,4.60058,2470.553,2022-7-29T15:15:14Z
2022-07-29T13:16:30Z,42.805,6.029,13.3019,4.60085,2470.553,2022-7-29T15:18:17Z
2022-07-29T13:19:33Z,42.805,6.029,13.3015,4.60077,2470.553,2022-7-29T15:21:21Z
2022-07-29T13:22:36Z,42.805,6.029,13.3014,4.60069,2470.567,2022-7-29T15:24:24Z
2022-07-29T13:25:39Z,42.805,6.029,13.3034,4.60067,2470.567,2022-7-29T15:27:27Z
2022-07-29T13:28:42Z,42.805,6.029,13.3019,4.60097,2470.544,2022-7-29T15:30:30Z
2022-07-29T13:31:45Z,42.805,6.029,13.3028,4.60074,2470.553,2022-7-29T15:33:33Z
2022-07-29T13:34:49Z,42.805,6.029,13.3012,4.60082,2470.53,2022-7-29T15:36:36Z
2022-07-29T13:37:52Z,42.805,6.029,13.3030,4.60064,2470.567,2022-7-29T15:39:39Z
2022-07-29T13:40:55Z,42.805,6.029,13.3026,4.60084,2470.553,2022-7-29T15:42:42Z
2022-07-29T13:43:58Z,42.805,6.029,13.3021,4.60069,2470.544,2022-7-29T15:45:46Z
2022-07-29T13:47:01Z,42.805,6.029,13.3022,4.60069,2470.544,2022-7-29T15:48:49Z
2022-07-29T13:50:04Z,42.805,6.029,13.3027,4.60062,2470.567,2022-7-29T15:51:52Z
2022-07-29T13:53:07Z,42.805,6.029,13.3026,4.60085,2470.553,2022-7-29T15:54:55Z
2022-07-29T13:56:10Z,42.805,6.029,13.3018,4.60069,2470.553,2022-7-29T15:57:58Z
2022-07-29T13:59:13Z,42.805,6.029,13.3011,4.60081,2470.53,2022-7-29T16:01:01Z
2022-07-29T14:02:17Z,42.805,6.029,13.3024,4.60095,2470.553,2022-7-29T16:04:04Z
2022-07-29T14:05:20Z,42.805,6.029,13.3031,4.60088,2470.544,2022-7-29T16:07:07Z
2022-07-29T14:08:23Z,42.805,6.029,13.3024,4.60098,2470.567,2022-7-29T16:10:11Z
2022-07-29T14:11:26Z,42.805,6.029,13.3015,4.60069,2470.544,2022-7-29T16:13:14Z
2022-07-29T14:14:29Z,42.805,6.029,13.3019,4.60068,2470.567,2022-7-29T16:16:17Z
2022-07-29T14:17:32Z,42.805,6.029,13.3017,4.60067,2470.553,2022-7-29T16:19:20Z
2022-07-29T14:20:35Z,42.805,6.029,13.3026,4.60067,2470.553,2022-7-29T16:22:23Z
2022-07-29T14:23:38Z,42.805,6.029,13.3019,4.60079,2470.553,2022-7-29T16:25:26Z
2022-07-29T14:26:42Z,42.805,6.029,13.3031,4.60081,2470.53,2022-7-29T16:28:29Z
2022-07-29T14:29:45Z,42.805,6.029,13.3024,4.60096,2470.577,2022-7-29T16:31:32Z
2022-07-29T14:32:48Z,42.805,6.029,13.3023,4.60097,2470.53,2022-7-29T16:34:36Z
2022-07-29T14:35:51Z,42.805,6.029,13.3030,4.60079,2470.553,2022-7-29T16:37:39Z
2022-07-29T14:38:54Z,42.805,6.029,13.3019,4.60064,2470.553,2022-7-29T16:40:42Z
2022-07-29T14:41:57Z,42.805,6.029,13.3015,4.60085,2470.53,2022-7-29T16:43:45Z
2022-07-29T14:45:00Z,42.805,6.029,13.3029,4.60076,2470.544,2022-7-29T16:46:48Z
2022-07-29T14:48:03Z,42.805,6.029,13.3017,4.60075,2470.553,2022-7-29T16:49:51Z
2022-07-29T14:51:07Z,42.805,6.029,13.3015,4.60077,2470.567,2022-7-29T16:52:54Z
2022-07-29T14:54:10Z,42.805,6.029,13.3024,4.60081,2470.553,2022-7-29T16:55:57Z
2022-07-29T14:57:13Z,42.805,6.029,13.3019,4.60086,2470.577,2022-7-29T16:59:01Z
2022-07-29T15:00:16Z,42.805,6.029,13.3033,4.60101,2470.567,2022-7-29T17:02:04Z
2022-07-29T15:03:19Z,42.805,6.029,13.3023,4.60093,2470.591,2022-7-29T17:05:07Z
2022-07-29T15:06:22Z,42.805,6.029,13.3026,4.60079,2470.553,2022-7-29T17:08:10Z
2022-07-29T15:09:25Z,42.805,6.029,13.3015,4.60078,2470.553,2022-7-29T17:11:13Z
2022-07-29T15:12:29Z,42.805,6.029,13.3027,4.60087,2470.567,2022-7-29T17:14:16Z
2022-07-29T15:15:32Z,42.805,6.029,13.3034,4.60097,2470.567,2022-7-29T17:17:19Z